Location: Boston
(42.3580°N, 71.0600°W)
Time: 00:21:11
(UTC-04:00)

Vanguard 2 Rocket - All Passes

Search period start: 18 August 2018 00:00
Search period end: 28 August 2018 00:00
Orbit: 554 x 3327 km, 32.9° (Epoch: 17 August)

Date Brightness Start Highest point End Pass type
(mag) Time Alt. Az. Time Alt. Az. Time Alt. Az.
18 Aug - 13:55:47 10° SSE 13:59:05 11° SE 14:02:11 10° SE daylight
18 Aug - 16:01:05 10° SSW 16:14:29 29° SSE 16:23:44 10° ESE daylight
18 Aug - 18:16:17 10° WSW 18:29:23 44° S 18:37:06 10° ESE daylight
18 Aug - 20:33:32 10° WSW 20:43:04 41° SSW 20:48:45 10° ESE visible
18 Aug - 22:50:56 10° WSW 22:55:11 17° SSW 22:58:27 10° S visible
19 Aug - 15:00:52 10° SSW 15:13:46 24° SSE 15:23:28 10° ESE daylight
19 Aug - 17:14:34 10° SW 17:29:06 41° SSE 17:38:02 10° E daylight
19 Aug - 19:31:44 10° WSW 19:43:27 47° S 19:50:12 10° ESE daylight
19 Aug - 21:49:18 10° W 21:56:15 27° SSW 22:00:52 10° SSE visible
20 Aug - 14:01:44 10° S 14:12:56 19° SE 14:22:12 10° ESE daylight
20 Aug - 16:13:06 10° SW 16:28:31 38° SSE 16:38:38 10° E daylight
20 Aug - 18:29:44 10° WSW 18:43:30 49° S 18:51:28 10° ESE daylight
20 Aug - 20:47:36 10° W 20:57:03 38° SSW 21:02:46 10° SE visible
20 Aug - 23:06:44 10° WSW 23:08:45 11° SW 23:10:33 10° SSW visible
21 Aug - 13:04:41 10° SSE 13:12:05 13° SE 13:18:49 10° ESE daylight
21 Aug - 15:12:08 10° SSW 15:27:41 33° SSE 15:38:48 10° E daylight
21 Aug - 17:27:40 10° WSW 17:43:11 49° S 17:52:28 10° E daylight
21 Aug - 19:45:38 10° W 19:57:31 47° SSW 20:04:21 10° ESE visible
21 Aug - 22:03:52 10° W 22:09:56 21° SW 22:14:14 10° SSE visible
22 Aug - 14:11:55 10° SSW 14:26:43 27° SSE 14:38:19 10° E daylight
22 Aug - 16:25:48 10° SW 16:42:32 46° SSE 16:53:11 10° E daylight
22 Aug - 18:43:27 10° WSW 18:57:35 52° S 19:05:41 10° ESE daylight
22 Aug - 21:01:49 10° W 21:10:52 32° SSW 21:16:32 10° SSE visible
23 Aug - 13:12:46 10° S 13:25:43 21° SE 13:36:51 10° ESE daylight
23 Aug - 15:24:20 10° SW 15:41:35 42° SSE 15:53:32 10° E daylight
23 Aug - 17:41:09 10° WSW 17:57:15 54° S 18:06:46 10° ESE daylight
23 Aug - 19:59:40 10° W 20:11:26 43° SSW 20:18:21 10° SE visible
23 Aug - 22:19:06 10° WSW 22:23:24 15° SW 22:26:48 10° S visible
24 Aug - 12:15:27 10° SSE 12:24:47 15° SE 12:33:32 10° ESE daylight
24 Aug - 14:23:28 10° SSW 14:40:27 36° SSE 14:53:25 10° E daylight
24 Aug - 16:38:59 10° WSW 16:56:32 53° S 17:07:33 10° E daylight
24 Aug - 18:57:19 10° W 19:11:35 51° SSW 19:19:48 10° ESE daylight
24 Aug - 21:16:16 10° W 21:24:28 25° SW 21:29:56 10° SSE visible
25 Aug - 13:23:24 10° SSW 13:39:16 30° SSE 13:52:37 10° E daylight
25 Aug - 15:37:08 10° SW 15:55:29 50° SSE 16:08:00 10° E daylight
25 Aug - 17:54:52 10° WSW 18:11:16 56° S 18:20:57 10° ESE daylight
25 Aug - 20:13:49 10° W 20:25:11 36° SSW 20:32:05 10° SE visible
26 Aug - 12:24:25 10° S 12:38:10 23° SE 12:50:49 10° E daylight
26 Aug - 14:35:50 10° SW 14:54:12 45° SSE 15:08:02 10° E daylight
26 Aug - 16:52:29 10° WSW 17:10:32 58° S 17:21:47 10° ESE daylight
26 Aug - 19:11:19 10° W 19:25:27 47° SSW 19:33:44 10° SE daylight
26 Aug - 21:31:15 10° W 21:37:49 18° SW 21:42:40 10° S visible
27 Aug - 11:27:10 10° SSE 11:37:17 16° SE 11:47:15 10° ESE daylight
27 Aug - 13:35:13 10° SSW 13:52:49 39° SSE 14:07:34 10° E daylight
27 Aug - 15:50:23 10° WSW 16:09:24 56° S 16:22:18 10° E daylight
27 Aug - 18:08:44 10° W 18:25:13 54° SSW 18:35:02 10° ESE daylight
27 Aug - 20:28:12 10° W 20:38:42 29° SW 20:45:28 10° SSE visible
